Regional Weather Roundup
Issued by NWS Pendleton, OR

Home | Current Version | Previous Version | Text Only | Print | Product List | Glossary On
Versions: 1 2 3 4 5 6 7 8 9 10 11 12 13 14 15 16 17 18 19 20 21 22 23 24 25 26 27 28 29 30 31 32 33 34 35 36 37 38 39 40 41 42 43 44 45 46 47 48 49 50
000
ASUS46 KPDT 271525
RWRPDT
PENDLETON REGIONAL WEATHER ROUNDUP
NATIONAL WEATHER SERVICE PENDLETON OREGON
800 AM PDT WED JUL 27 2016

NOTE: FAIR INDICATES FEW OR NO CLOUDS BELOW 12,000 FEET WITH NO
SIGNIFICANT WEATHER AND/OR OBSTRUCTIONS TO VISIBILITY.

# INDICATES UNOFFICIAL STATION AND DATA

WAZ520-271610-
EAST SLOPES OF WASHINGTON CASCADES

CITY            SKY/WX      TMP DP  RH  WIND    PRES   REMARKS
#CLE ELUM HS    N/A         65  55  70  CALM    30.06S
#CLE ELUM 2NW   N/A         67  54  63  W2      N/A
#GLENWOOD       N/A         60  56  87  CALM    30.01R
#MANASTASH CYN  N/A         64  51  63  CALM    30.08R
#NELSON 3SW     N/A         62  54  75  CALM    30.18R
#NILE           N/A         64  53  67  CALM    29.33R
#RONALD 2NW     N/A         58  N/A N/A CALM    30.18R
#TEANAWAY 4NE   N/A         60  56  87  CALM    N/A
#TROUT LAKE 1NE N/A         64  55  73  CALM    30.00S
#TROUT LAKE 1E  N/A         59  56  90  CALM    30.06R
$$

WAZ521-271610-
SIMCOE HIGHLANDS

CITY            SKY/WX      TMP DP  RH  WIND    PRES   REMARKS
#CENTERVILLE 1SWN/A         66  56  70  CALM    29.97S
#GOLDENDALE 1NE N/A         64  47  54  CALM    N/A
#GOLDENDALE 4W  N/A         68  61  78  W3      30.10S
#GOODNOE HILLS  N/A         72  58  61  W7      29.97R
#LYLE 6NE       N/A         62  58  87  S2      29.98R
$$

WAZ026-271610-
KITTITAS VALLEY

CITY            SKY/WX      TMP DP  RH  WIND    PRES   REMARKS
ELLENSBURG AP   SUNNY       70  56  61  CALM    30.08R
#ELLENSBURG CWU N/A         71  56  59  N10     29.95R
#ELLENSBURG 3NE N/A         66  59  78  CALM    30.08R
#ELLENSBURG     N/A         72  57  59  NW7     N/A
#KITTITAS 4N    N/A         68  56  65  S2      30.11R
#KITTITAS 3S    N/A         66  59  78  CALM    29.99R
#THORP 6N       N/A         65  55  70  N12     30.02R
$$

WAZ027-271610-
YAKIMA VALLEY

CITY            SKY/WX      TMP DP  RH  WIND    PRES   REMARKS
SUNNYSIDE AP    SUNNY       68  56  65  CALM    30.04R
YAKIMA AIRPORT  SUNNY       76  53  45  N7      30.06R
YAKIMA-VAGABOND N/A         74  53  48  E10     30.05R
#DONALD 2NE     N/A         80  32  17  W1      28.89R
#GRANDVIEW      N/A         72  54  53  CALM    30.00R
#MABTON         N/A         75  57  54  CALM    30.03R
#NACHES 2SW     N/A         69  55  61  W7      30.09R
#TERRACE HTS    N/A         72  58  61  CALM    29.93R
#TOPPENISH      N/A         75  56  52  NW5     29.91R
#WEST VALLEY    N/A         72  54  53  CALM    29.97R
#W YAKIMA       N/A         73  56  55  E2      29.99R
#WHITE SWAN 5E  N/A         71  56  59  CALM    30.00R
#WILEY CITY 3W  N/A         73  49  43  CALM    30.04R
$$

WAZ028-271610-
LOWER COLUMBIA BASIN...WASHINGTON

CITY            SKY/WX      TMP DP  RH  WIND    PRES   REMARKS
HANFORD         MOSUNNY     78  53  42  NW12    30.01R
PASCO           SUNNY       78  55  45  W5      30.02R
PROSSER AWOS    N/A         75  57  54  W7      30.06R
RICHLAND AWOS   SUNNY       80  56  44  W5      30.02R
#BENTON CITY    N/A         74  57  55  E1      29.89R
#CONNELL 5N     N/A         73  55  53  N2      29.96S
#CONNELL 5NW    N/A         72  58  61  N1      29.93R
#ELTOPIA 6NW    N/A         72  61  68  CALM    29.00R
#KAHLOTUS       N/A         70  56  61  SW3     29.95R
#KENNEWICK 3S   N/A         71  57  61  CALM    29.98R
#PATERSON       N/A         70  61  73  SW2     29.99R
#SAGEMOOR 2W    N/A         75  58  56  NW1     29.84R
#TOUCHET 2S     N/A         75  60  60  SW6     29.96R
#WEST PASCO     N/A         77  59  54  NW1     30.00R
$$

WAZ029-271610-
FOOTHILLS OF THE BLUES...WASHINGTON

CITY            SKY/WX      TMP DP  RH  WIND    PRES   REMARKS
WALLA WALLA AP  SUNNY       74  53  48  SW12    30.05R
#CLYDE 6NW      N/A         70  57  63  SW7     29.95R
#DAYTON SCHOOL  N/A         74  51  44  SW2     30.05R
#LOWDEN 2SE     N/A         76  62  62  CALM    29.99R
#PLEASANT VIEW 1N/A         72  55  55  S12     29.97R
#PRESCOTT       N/A         74  59  59  CALM    29.97R
#WHITMAN COLLEGEN/A         75  57  54  S3      30.02R
#WAITSBURG 5S   N/A         73  54  51  S12     30.04R
#WAITSBURG 8N   N/A         73  27  18  S13     30.02S
#WHITMAN MISSIONN/A         76  59  56  CALM    30.00R
$$

WAZ030-271610-
BLUE MOUNTAINS...WASHINGTON

CITY            SKY/WX      TMP DP  RH  WIND    PRES   REMARKS
#DIXIE 5SE      N/A         68  54  61  SW7     30.06R
$$

ORZ009-041-WAZ024-271610-
COLUMBIA RIVER GORGE

CITY            SKY/WX      TMP DP  RH  WIND    PRES   REMARKS
HOOD RIVER AP   SUNNY       64  55  73  CALM    30.08R
THE DALLES AP   SUNNY       69  57  66  NW10    30.04R
#ARLINGTON AIRPON/A         73  58  59  W6      30.00R
#LYLE           N/A         67  59  75  W7      30.05R
#MARYHILL 2W    N/A         69  60  73  CALM    N/A
#MOSIER 1S      N/A         63  53  70  N8      30.06S
#MURDOCK        N/A         69  60  73  W10     29.99S
#RUFUS DOT      N/A         71  59  66  W6      N/A
#SMITHVILLE     N/A         69  59  70  W15     30.01R

$$

ORZ510-271610-
NORTH CENTRAL OREGON

CITY            SKY/WX      TMP DP  RH  WIND    PRES   REMARKS
#ANTELOPE       N/A         65  50  58  CALM    29.85R
#CHENOWITH 1W   N/A         60  56  87  NW16    N/A
#COW CYN RST AREN/A         66  N/A N/A CALM    N/A
#DUFUR 9E       N/A         68  54  61  W5      30.03R
#GRASS VALLEY 1SN/A         69  53  57  SW2     30.05R
#KENT DOT       N/A         67  48  50  N3      N/A
#MAUPIN SCHOOL  N/A         65  53  65  CALM    30.10R
#SHANIKO 5WSW   N/A         65  46  50  N6      N/A
#SHANIKO 4NW    N/A         72  58  61  S3      30.14R
#TYGH VALLEY 2NEN/A         63  51  65  CALM    30.01R
#WAPANITIA AIRPON/A         66  51  58  N1      30.01R
#WASCO DOT      N/A         70  57  63  NW6     N/A
#WASCO AIRPORT  N/A         66  54  65  W8      N/A
#WASCO 5NE      N/A         68  56  65  SW5     29.98R
$$

ORZ511-271610-
CENTRAL OREGON

CITY            SKY/WX      TMP DP  RH  WIND    PRES   REMARKS
BEND AIRPORT    SUNNY       68  48  49  CALM    30.14S
MADRAS AIRPORT  SUNNY       70  50  49  MISG    30.14R
PRINEVILLE AP   SUNNY       64  41  43  CALM    30.15R
REDMOND AIRPORT SUNNY       63  42  46  CALM    30.14R
#ASHWOOD SCHOOL N/A         60  42  51  CALM    30.08S
#BEND 1SW       N/A         61  52  72  NE1     N/A
#BEND-AWBREY    N/A         61  50  67  SW2     29.95S
#CULVER         N/A         64  48  56  CALM    29.93S
#CULVER 8W      N/A         70  43  38  E2      30.11S
#LAKE BILLY CHINN/A         63  N/A N/A CALM    30.17S
#MADRAS 4S      N/A         66  16  14  CALM    30.19R
#POWELL BUTTE 3EN/A         59  46  62  S1      N/A
#POWELL BUTTE   N/A         78  53  42  CALM    30.01R
#PRINEVILLE 3N  N/A         61  47  60  CALM    30.06S
#WARM SPRINGS   N/A         67  49  52  CALM    30.07R

$$


ORZ509-271610-
EAST SLOPES OF OREGON CASCADES

CITY            SKY/WX      TMP DP  RH  WIND    PRES   REMARKS
SISTERS AWOS    N/A         61  43  51  CALM    30.11S
#CAMP SHERMAN   N/A         44  41  89  CALM    30.13R
#LA PINE DOT    N/A         58  42  55  CALM    N/A
#LA PINE 4NW    N/A         53  47  80  CALM    30.03S
#LAVA BUTTE DOT N/A         58  47  67  CALM    N/A
#SISTERS AIRPOR N/A         61  50  67  CALM    30.17S
#SISTERS ODOT   N/A         60  N/A N/A CALM    N/A
#SISTERS 3N     N/A         56  46  69  CALM    30.11S
#SUNRIVER       N/A         58  51  77  S1      30.12S
#TUMALO 3W      N/A         65  45  48  CALM    29.84S
#WANOGA BUTTE D N/A         70  36  29  CALM    N/A

$$

ORZ044-271610-
LOWER COLUMBIA BASIN...OREGON

CITY            SKY/WX      TMP DP  RH  WIND    PRES   REMARKS
HERMISTON       SUNNY       74  55  51  NW6     30.03R
#BOARDMAN 8SW   N/A         73  59  62  SW6     30.00R
#ECHO 8SW       N/A         76  55  48  W3      30.04R
#I-84 EX 198 DOTN/A         74  57  55  E3      N/A
#UMATILLA       N/A         73  57  57  CALM    29.93S
$$

ORZ507-271610-
NORTHERN FOOTHILLS OF THE BLUES

CITY            SKY/WX      TMP DP  RH  WIND    PRES   REMARKS
PENDLETON AIRPT SUNNY       69  47  45  SE6     30.06R
#ADAMS 3WNW     N/A         74  52  46  CALM    29.98R
#ATHENA         N/A         72  54  53  CALM    30.00R
#CAYUSE         N/A         73  53  49  E2      29.98R
#HELIX SCHOOL   N/A         69  53  57  SW3     29.98R
#HELIX 3N       N/A         70  52  53  S8      30.04R
#HELIX 6SW      N/A         72  54  53  SW2     30.06R
#HOLDMAN 5SE    N/A         72  54  53  W2      30.05R
#HOLDMAN 6E     N/A         71  54  55  N2      29.79R
#M-F GROVE ELEM N/A         75  51  43  S2      30.02S
#M-FREEWATER 5SEN/A         72  54  53  CALM    30.05R
#PENDLETON DNTN N/A         66  50  56  CALM    30.07S
#PDT AQUATIC CTRN/A         68  49  51  CALM    29.89R
#PDT SUNRIDGE   N/A         71  51  49  CALM    30.07R
#PENDLETON 7NW  N/A         73  55  53  CALM    N/A
#PILOT ROCK 1S  N/A         74  49  41  S2      30.07S
#PILOT ROCK     N/A         73  54  51  SW1     30.09R
#TUTUILLA       N/A         69  51  53  CALM    30.03R
#UMAPINE 2E     N/A         76  60  58  CALM    30.00R
#WESTON SCHOOL  N/A         72  51  48  N1      29.92R

$$

ORZ508-271610-
SOUTHERN FOOTHILLS OF THE BLUES

CITY            SKY/WX      TMP DP  RH  WIND    PRES   REMARKS
LEXINGTON       SUNNY       73  52  48  CALM    30.11R
#CONDON 5W      N/A         66  50  56  NW2     30.10R
#HEPPNER EOC    N/A         72  50  46  CALM    29.92R
#HEPPNER 4NE    N/A         71  52  51  CALM    29.95F
#LEXINGTON 2SE  N/A         73  53  49  CALM    30.03S
#RUGGS 5NE      N/A         72  50  46  SW1     30.27S
#RUGGS 2SW      N/A         69  48  47  E1      29.98R

$$

ORZ502-503-271610-
BLUE MOUNTAINS

CITY            SKY/WX      TMP DP  RH  WIND    PRES   REMARKS
MEACHAM         SUNNY       61  45  56  CALM    30.16R
#BATTLE MTN DOT N/A         58  49  72  CALM    N/A
#CUTSFORTH PARK N/A         50  47  89  CALM    29.95R
#GREENHORN 9SW  N/A         56  47  72  CALM    26.35R
#HARDMAN 10S    N/A         69  50  51  CALM    30.03F
#HEPPNER 15SE   N/A         64  50  60  W2      25.68R
#LADD CYN SMT   N/A         69  50  51  NW3     N/A
#LADD CREEK ODOTN/A         60  48  64  CALM    N/A
#N POWDER DOT   N/A         66  53  63  W2      N/A
#PIKES PEAK     N/A         64  52  65  SW8     27.99S
#TOLLGATE       N/A         65  50  58  CALM    30.05R
#TROY SCHOOL    N/A         73  54  51  CALM    29.81S
#UKIAH          N/A         52  46  80  CALM    29.94S
#WESTON 4E      N/A         69  53  57  CALM    29.92R
$$

ORZ505-271610-
JOHN DAY BASIN

CITY            SKY/WX      TMP DP  RH  WIND    PRES   REMARKS
JOHN DAY        SUNNY       67  45  45  CALM    30.15S
#DAYVILLE SCHOOLN/A         67  44  43  CALM    30.07S
#MITCHELL       N/A         68  50  53  CALM    30.28R
#MITCHELL 8NW   N/A         71  45  39  CALM    30.13R
#MT. VERNON 5SE N/A         70  45  41  NE2     30.12R
#SPRAY SCHOOL   N/A         69  N/A N/A CALM    N/A
$$

ORZ506-271610-
OCHOCO AND JOHN DAY HIGHLANDS

CITY            SKY/WX      TMP DP  RH  WIND    PRES   REMARKS
#HORSE RIDGE DO N/A         57  37  47  NE1     N/A
#KEYES SMT DOT  N/A         69  42  37  N5      N/A
#PAULINA SCHOOL N/A         60  38  44  CALM    N/A
#PINE MTN OBS   N/A         66  40  38  E3      N/A
#PRAIRIE CITY   N/A         64  52  65  CALM    30.28R
#SENECA         N/A         56  N/A N/A CALM    N/A
$$

ORZ049-271610-
GRANDE RONDE VALLEY

CITY            SKY/WX      TMP DP  RH  WIND    PRES   REMARKS
LA GRANDE       SUNNY       66  43  43  CALM    30.11R
#COVE           N/A         67  54  63  CALM    30.13R
#COVE SCHOOL    N/A         68  50  53  CALM    30.13R
#COVE 6NW       N/A         61  52  72  CALM    30.00R
#ELGIN 3N       N/A         64  50  60  CALM    30.08S
#ELGIN 1E       N/A         60  51  72  CALM    N/A
#IMBLER SCHOOL  N/A         64  50  60  CALM    30.06R
#ISLAND CITY 4N N/A         57  55  93  CALM    30.11S
#LADD CYN DOT   N/A         63  51  65  CALM    N/A
#UNION 1S       N/A         66  52  61  CALM    29.87R
$$

ORZ050-271610-
WALLOWA COUNTY

CITY            SKY/WX      TMP DP  RH  WIND    PRES   REMARKS
JOSEPH AIRPORT  SUNNY       72  50  46  CALM    N/A
#ENTERPRISE AP  N/A         49  29  46  CALM    30.08R
#ENTERPRISE HS  N/A         63  53  70  CALM    30.15R
#IMNAHA SCHOOL  N/A         68  52  57  S2      30.06R
#IMNAHA 10S     N/A         68  52  57  S1      30.09S
#JOSEPH 3N      N/A         64  53  67  CALM    30.16R
#JOSEPH 3W      N/A         77  51  40  NE1     30.02
#LOSTINE        N/A         67  52  59  CALM    29.77R
#LOSTINE 3SE    N/A         65  51  60  SE5     30.11S
#MT HOWARD 8000 N/A         59  45  60  CALM    30.40S
#PROMISE 1S     N/A         69  52  55  CALM    30.02S
#WALLOWA SCHOOL N/A         61  51  70  CALM    30.08S



$$



USA.gov is the U.S. government's official web portal to all federal, state and local government web resources and services.